AirNav   Air Wisconsin Up To $57,000 Bonus
 
 1894 users online  

CA30 Manclark Airway Heliport
Costa Mesa, California, USA


FAA INFORMATION EFFECTIVE 10 OCTOBER 2019

Location

FAA Identifier: CA30
Lat/Long: 33-40-30.1000N 117-52-23.4000W
33-40.501667N 117-52.390000W
33.6750278,-117.8731667
(estimated)
Elevation: 77 ft. / 23 m (estimated)
From city: 3 miles NE of COSTA MESA, CA
Time zone: UTC -7 (UTC -8 during Standard Time)
Zip code: 92707

Heliport Operations

Heliport use: Private use. Permission required prior to landing
Activation date: 01/2018
Control tower: no
ARTCC: LOS ANGELES CENTER
FSS: SAN DIEGO FLIGHT SERVICE STATION
Attendance: IREG
Wind indicator: lighted
Segmented circle: no
Lights: ACTIVATE PERI LGTS 123.05.

Heliport Communications

WX ASOS at SNA (0.2 nm E): PHONE 714-424-0590
WX ASOS at FUL (13 nm NW): PHONE 714-870-1372
WX ASOS at LGB (16 nm NW): PHONE 562-424-0572
WX AWOS-3PT at AJO (19 nm NE): 132.175 (951-340-4764)

Nearby radio navigation aids

VOR radial/distance  VOR name  Freq  Var
ELBr256/7.1EL TORO VOR/DME117.2014E
SLIr111/11.1SEAL BEACH VORTAC115.7015E
PDZr215/22.5PARADISE VORTAC112.2015E
POMr175/24.6POMONA VORTAC110.4015E
RALr217/(27.0)RIVERSIDE VOR112.4014E
LAXr104/31.9LOS ANGELES VORTAC113.6015E
SXCr042/32.7SANTA CATALINA VORTAC111.4015E
OCNr304/34.6OCEANSIDE VORTAC115.3015E
HDFr246/(34.9)HOMELAND VOR113.4014E
SMOr110/35.4SANTA MONICA VOR/DME110.8015E

Heliport Services

Runway Information

Helipad H1

Dimensions: 37 x 37 ft. / 11 x 11 m
DESIGN ACFT AIRBUS H145.
Surface: concrete, in good condition
Runway edge lights: PERI
Runway edge markings: STD HELI MARKINGS
Latitude: 33-40.501667N
Longitude: 117-52.390000W
Elevation: 77.0 ft.
Traffic pattern: leftleft
Markings: , in good condition

Heliport Ownership and Management from official FAA records

Ownership: Privately-owned
Owner: MANCLARK AIRWAY LLC
3132 AIRWAY AVENUE
COSTA MESA, CA 92626
Phone 949-205-9988
Manager: MIKE MANCLARK
3132 AIRWAY AVENUE
COSTA MESA, CA 92626
Phone 949-205-9988

Instrument Procedures

There are no published instrument procedures at CA30.

Some nearby airports with instrument procedures:

KSNA - John Wayne-Orange County Airport (0 nm E)
KSLI - Los Alamitos Army Airfield (11 nm NW)
KFUL - Fullerton Municipal Airport (13 nm NW)
KLGB - Long Beach Airport (Daugherty Field) (16 nm NW)
KAJO - Corona Municipal Airport (19 nm NE)
 
Loc | Ops | Rwys | IFR | FBO | Links
Com | Nav | Svcs | Stats | Notes
Aerial photo
No photo
 
Airport distance calculator
Flying to Manclark Airway Heliport? Find the distance to fly.

From to CA30

Sunrise and sunset
Times for 23-Oct-2019
 Local
(UTC-7)
 Zulu
(UTC)
Morning civil twilight06:3913:39
Sunrise07:0414:04
Sunset18:0801:08
Evening civil twilight18:3301:33

Current date and time
Zulu (UTC)  23-Oct-2019 17:17:52
Local (UTC-7)  23-Oct-2019 10:17:52
 
METAR
KSNA 231653Z 00000KT 10SM CLR 26/07 A2992 RMK AO2 SLP131 T02560072
KSLI 
10nm NW 
231658Z 00000KT 10SM CLR 25/08 A2993 RMK AO2A SLP138 T02470082
KFUL 
13nm NW 
231653Z 00000KT 10SM CLR 26/03 A2992 RMK AO2 SLP131 T02560033
KLGB 
16nm NW 
231653Z 00000KT 9SM CLR 25/09 A2993 RMK AO2 SLP133 T02500094
KAJO 
19nm NE 
231656Z AUTO 00000KT 10SM CLR 22/06 A2995 RMK AO2 SLP136 T02220056
TAF
KSNA 231120Z 2312/2412 VRB03KT P6SM SKC FM231900 22008KT P6SM SKC FM240100 VRB03KT P6SM SKC
KSLI 
10nm NW 
231300Z 2313/2419 VRB06KT 9999 SKC QNH2980INS TX36/2323Z TN13/2413Z
KLGB 
16nm NW 
231135Z 2312/2412 VRB03KT P6SM SKC FM231900 19006KT P6SM SKC FM232300 26008KT P6SM SKC FM240400 VRB03KT P6SM SKC
NOTAMs
Click for the latest NOTAMs
NOTAMs are issued by the DoD/FAA and will open in a separate window not controlled by AirNav.

 

 
 

Would you like to see your business listed on this page?

 If your business provides an interesting product or service to pilots, flight crews, aircraft, or users of the Manclark Airway Heliport, you should consider listing it here.  To start the listing process, click on the button below
 
Add a business
 

Other Pages about Manclark Airway Heliport

Update a link
 
Copyright © AirNav, LLC. All rights reserved. Privacy Policy  Contact